H1 CPF 2 NER 2024 2 6 9 037 01 glonass135 H2 1600801 9135 41330 2024 2 6 0 0 0 2024 2 9 23 45 0 900 1 1 0 0 0 1 H9 10 0 60346 0.00000 0 23231499.200 8789488.823 5743630.564 10 0 60346 900.00000 0 23775430.638 8833342.632 2559971.535 10 0 60346 1800.00000 0 23952125.985 8695681.271 -673510.504 10 0 60346 2700.00000 0 23738362.270 8428362.365 -3893878.279 10 0 60346 3600.00000 0 23123963.494 8087418.525 -7038430.325 10 0 60346 4500.00000 0 22112336.422 7730456.257 -10045932.263 10 0 60346 5400.00000 0 20720450.846 7413995.786 -12857819.700 10 0 60346 6300.00000 0 18978264.428 7190865.881 -15419348.140 10 0 60346 7200.00000 0 16927615.898 7107765.416 -17680666.492 10 0 60346 8100.00000 0 14620633.041 7203096.085 -19597792.530 10 0 60346 9000.00000 0 12117722.420 7505158.938 -21133470.927 10 0 60346 9900.00000 0 9485225.385 8030791.660 -22257897.064 10 0 60346 10800.00000 0 6792838.723 8784504.575 -22949292.807 10 0 60346 11700.00000 0 4110907.905 9758151.957 -23194323.558 10 0 60346 12600.00000 0 1507705.882 10931152.496 -22988349.135 10 0 60346 13500.00000 0 -953189.481 12271249.478 -22335504.428 10 0 60346 14400.00000 0 -3215310.777 13735778.509 -21248608.991 10 0 60346 15300.00000 0 -5231409.651 15273389.288 -19748908.110 10 0 60346 16200.00000 0 -6965172.250 16826148.984 -17865650.932 10 0 60346 17100.00000 0 -8392471.753 18331938.830 -15635514.395 10 0 60346 18000.00000 0 -9502107.674 19727043.375 -13101884.478 10 0 60346 18900.00000 0 -10296003.183 20948823.857 -10314009.010 10 0 60346 19800.00000 0 -10788854.319 21938363.727 -7326038.635 10 0 60346 20700.00000 0 -11007247.804 22642975.610 -4195974.684 10 0 60346 21600.00000 0 -10988286.328 23018464.798 -984544.421 10 0 60346 22500.00000 0 -10777780.595 23031054.714 2245974.557 10 0 60346 23400.00000 0 -10428085.390 22658893.855 5432957.983 10 0 60346 24300.00000 0 -9995671.567 21893081.319 8514643.527 10 0 60346 25200.00000 0 -9538536.703 20738168.056 11431321.212 10 0 60346 26100.00000 0 -9113563.605 19212112.817 14126482.992 10 0 60346 27000.00000 0 -8773937.848 17345694.381 16547909.818 10 0 60346 27900.00000 0 -8566732.807 15181404.044 18648675.837 10 0 60346 28800.00000 0 -8530763.539 12771863.803 20388051.027 10 0 60346 29700.00000 0 -8694799.594 10177835.069 21732285.567 10 0 60346 30600.00000 0 -9076211.885 7465899.469 22655261.456 10 0 60346 31500.00000 0 -9680110.798 4705906.765 23138999.223 10 0 60346 32400.00000 0 -10499012.403 1968294.414 23174010.198 10 0 60346 33300.00000 0 -11513047.860 -678611.417 22759487.438 10 0 60346 34200.00000 0 -12690708.584 -3171202.552 21903331.182 10 0 60346 35100.00000 0 -13990097.531 -5452996.110 20622007.615 10 0 60346 36000.00000 0 -15360635.794 -7476743.146 18940242.614 10 0 60346 36900.00000 0 -16745154.470 -9206151.411 16890555.229 10 0 60346 37800.00000 0 -18082285.251 -10617150.710 14512638.651 10 0 60346 38700.00000 0 -19309050.304 -11698648.142 11852599.451 10 0 60346 39600.00000 0 -20363542.939 -12452741.605 8962068.913 10 0 60346 40500.00000 0 -21187586.145 -12894382.565 5897202.989 10 0 60346 41400.00000 0 -21729256.358 -13050502.390 2717590.023 10 0 60346 42300.00000 0 -21945164.998 -12958639.288 -514912.346 10 0 60346 43200.00000 0 -21802400.260 -12665124.364 -3737387.919 10 0 60346 44100.00000 0 -21280045.683 -12222904.211 -6887095.886 10 0 60346 45000.00000 0 -20370209.951 -11689093.179 -9902702.786 10 0 60346 45900.00000 0 -19078523.141 -11122360.150 -12725487.278 10 0 60346 46800.00000 0 -17424077.350 -10580261.759 -15300493.104 10 0 60346 47700.00000 0 -15438813.461 -10116636.267 -17577606.745 10 0 60346 48600.00000 0 -13166379.333 -9779169.523 -19512538.038 10 0 60346 49500.00000 0 -10660507.177 -9607236.875 -21067684.281 10 0 60346 50400.00000 0 -7982978.130 -9630112.862 -22212860.906 10 0 60346 51300.00000 0 -5201259.320 -9865624.612 -22925884.754 10 0 60346 52200.00000 0 -2385912.211 -10319305.758 -23192999.143 10 0 60346 53100.00000 0 392119.642 -10984086.307 -23009133.101 10 0 60346 54000.00000 0 3064230.661 -11840531.125 -22377990.529 10 0 60346 54900.00000 0 5566768.385 -12857616.504 -21311968.300 10 0 60346 55800.00000 0 7843435.663 -13994011.610 -19831905.619 10 0 60346 56700.00000 0 9847381.066 -15199810.467 -17966670.105 10 0 60346 57600.00000 0 11542891.972 -16418641.290 -15752589.122 10 0 60346 58500.00000 0 12906621.453 -17590064.216 -13232737.781 10 0 60346 59400.00000 0 13928299.739 -18652156.522 -10456097.704 10 0 60346 60300.00000 0 14610902.530 -19544176.658 -7476603.042 10 0 60346 61200.00000 0 14970271.136 -20209195.197 -4352092.416 10 0 60346 62100.00000 0 15034202.241 -20596582.275 -1143187.164 10 0 60346 63000.00000 0 14841047.170 -20664247.215 2087882.338 10 0 60346 63900.00000 0 14437880.876 -20380536.428 5278479.581 10 0 60346 64800.00000 0 13878318.626 -19725710.063 8366770.877 10 0 60346 65700.00000 0 13220072.927 -18692935.470 11292917.275 10 0 60346 66600.00000 0 12522353.727 -17288755.697 14000226.705 10 0 60346 67500.00000 0 11843221.288 -15533013.054 16436244.640 10 0 60346 68400.00000 0 11237002.814 -13458230.284 18553762.851 10 0 60346 69300.00000 0 10751881.037 -11108474.310 20311727.458 10 0 60346 70200.00000 0 10427755.734 -8537748.729 21676029.476 10 0 60346 71100.00000 0 10294467.634 -5807980.562 22620163.259 10 0 60346 72000.00000 0 10370459.236 -2986683.408 23125740.564 10 0 60346 72900.00000 0 10661928.914 -144392.441 23182850.589 10 0 60346 73800.00000 0 11162514.354 2648023.933 22790258.920 10 0 60346 74700.00000 0 11853519.510 5322065.613 21955441.147 10 0 60346 75600.00000 0 12704676.697 7814204.687 20694449.765 10 0 60346 76500.00000 0 13675413.183 10068284.472 19031615.900 10 0 60346 77400.00000 0 14716570.463 12037614.592 16999090.442 10 0 60346 78300.00000 0 15772505.167 13686675.192 14636232.214 10 0 60346 79200.00000 0 16783484.216 14992359.328 11988853.801 10 0 60346 80100.00000 0 17688273.849 15944701.445 9108338.686 10 0 60346 81000.00000 0 18426813.658 16547061.439 6050646.205 10 0 60346 81900.00000 0 18942862.257 16815756.370 2875223.268 10 0 60346 82800.00000 0 19186501.920 16779155.399 -356155.830 10 0 60346 83700.00000 0 19116395.278 16476276.483 -3580598.372 10 0 60346 84600.00000 0 18701697.211 15954944.618 -6735326.561 10 0 60346 85500.00000 0 17923539.579 15269590.310 -9758910.102 10 0 60347 0.00000 0 16776024.606 14478782.461 -12592472.566 10 0 60347 900.00000 0 15266682.983 13642600.816 -15180848.364 10 0 60347 1800.00000 0 13416377.857 12819961.395 -17473663.003 10 0 60347 2700.00000 0 11258655.922 12066007.701 -19426319.907 10 0 60347 3600.00000 0 8838573.731 11429679.891 -21000870.333 10 0 60347 4500.00000 0 6211047.684 10951564.751 -22166750.905 10 0 60347 5400.00000 0 3438796.700 10662117.565 -22901374.400 10 0 60347 6300.00000 0 589963.524 10580330.717 -23190562.784 10 0 60347 7200.00000 0 -2264486.136 10712904.755 -23028814.741 10 0 60347 8100.00000 0 -5053478.408 11053956.178 -22419403.289 10 0 60347 9000.00000 0 -7708547.401 11585273.429 -21374302.315 10 0 60347 9900.00000 0 -10166440.212 12277109.478 -19913944.205 10 0 60347 10800.00000 0 -12371503.369 13089476.790 -18066813.870 10 0 60347 11700.00000 0 -14277752.578 13973889.453 -15868887.521 10 0 60347 12600.00000 0 -15850540.980 14875478.547 -13362927.496 10 0 60347 13500.00000 0 -17067758.067 15735391.276 -10597647.050 10 0 60347 14400.00000 0 -17920511.011 16493372.598 -7626761.512 10 0 60347 15300.00000 0 -18413261.766 17090420.535 -4507944.356 10 0 60347 16200.00000 0 -18563416.039 17471403.377 -1301708.515 10 0 60347 17100.00000 0 -18400383.021 17587528.670 1929765.372 10 0 60347 18000.00000 0 -17964146.782 17398560.214 5123831.072 10 0 60347 18900.00000 0 -17303410.446 16874689.886 8218586.070 10 0 60347 19800.00000 0 -16473391.949 15997985.654 11154064.961 10 0 60347 20700.00000 0 -15533364.394 14763354.774 13873394.134 10 0 60347 21600.00000 0 -14544044.497 13178981.476 16323886.003 10 0 60347 22500.00000 0 -13564938.594 11266220.078 18458052.260 10 0 60347 23400.00000 0 -12651757.227 9058947.139 20234517.282 10 0 60347 24300.00000 0 -11854006.311 6602398.393 21618814.796 10 0 60347 25200.00000 0 -11212855.325 3951537.432 22584053.083 10 0 60347 26100.00000 0 -10759371.552 1169022.351 23111436.356 10 0 60347 27000.00000 0 -10513194.110 -1677146.963 23190632.505 10 0 60347 27900.00000 0 -10481703.481 -4516205.010 22819980.044 10 0 60347 28800.00000 0 -10659721.682 -7277315.007 22006529.862 10 0 60347 29700.00000 0 -11029756.378 -9892271.022 20765920.252 10 0 60347 30600.00000 0 -11562779.590 -12298096.820 19122086.616 10 0 60347 31500.00000 0 -12219509.338 -14439434.161 17106810.281 10 0 60347 32400.00000 0 -12952141.347 -16270621.565 14759113.897 10 0 60347 33300.00000 0 -13706458.817 -17757376.988 12124513.901 10 0 60347 34200.00000 0 -14424231.946 -18878014.013 9254143.584 10 0 60347 35100.00000 0 -15045806.145 -19624140.336 6203763.053 10 0 60347 36000.00000 0 -15512769.338 -20000808.984 3032674.994 10 0 60347 36900.00000 0 -15770584.955 -20026115.751 -197432.529 10 0 60347 37800.00000 0 -15771078.041 -19730259.828 -3423693.211 10 0 60347 38700.00000 0 -15474667.958 -19154107.556 -6583295.262 10 0 60347 39600.00000 0 -14852251.643 -18347320.547 -9614714.578 10 0 60347 40500.00000 0 -13886656.123 -17366128.064 -12458923.154 10 0 60347 41400.00000 0 -12573597.371 -16270838.819 -15060548.013 10 0 60347 42300.00000 0 -10922103.722 -15123198.461 -17368957.049 10 0 60347 43200.00000 0 -8954384.889 -13983705.432 -19339249.866 10 0 60347 44100.00000 0 -6705151.276 -12908999.368 -20933133.940 10 0 60347 45000.00000 0 -4220411.612 -11949432.854 -22119668.904 10 0 60347 45900.00000 0 -1555798.957 -11146929.126 -22875864.758 10 0 60347 46800.00000 0 1225505.157 -10533215.828 -23187122.834 10 0 60347 47700.00000 0 4055161.876 -10128508.674 -23047511.617 10 0 60347 48600.00000 0 6862281.978 -9940699.593 -22459872.829 10 0 60347 49500.00000 0 9576140.352 -9965082.437 -21435756.459 10 0 60347 50400.00000 0 12128885.440 -10184626.628 -19995186.698 10 0 60347 51300.00000 0 14458131.590 -10570786.013 -18166263.958 10 0 60347 52200.00000 0 16509327.336 -11084807.739 -15984611.126 10 0 60347 53100.00000 0 18237802.114 -11679485.069 -13492675.220 10 0 60347 54000.00000 0 19610407.462 -12301279.457 -10738898.244 10 0 60347 54900.00000 0 20606685.781 -12892721.906 -7776773.520 10 0 60347 55800.00000 0 21219519.422 -13394991.976 -4663805.951 10 0 60347 56700.00000 0 21455234.606 -13750565.507 -1460396.484 10 0 60347 57600.00000 0 21333157.433 -13905819.396 1771327.605 10 0 60347 58500.00000 0 20884641.942 -13813483.632 4968713.907 10 0 60347 59400.00000 0 20151612.219 -13434837.378 8069794.437 10 0 60347 60300.00000 0 19184680.579 -12741556.632 11014480.387 10 0 60347 61200.00000 0 18040921.322 -11717135.652 13745719.282 10 0 60347 62100.00000 0 16781393.683 -10357822.119 16210592.715 10 0 60347 63000.00000 0 15468517.727 -8673026.213 18361334.075 10 0 60347 63900.00000 0 14163412.810 -6685185.594 20156247.300 10 0 60347 64800.00000 0 12923309.533 -4429090.688 21560509.663 10 0 60347 65700.00000 0 11799142.879 -1950696.918 22546843.754 10 0 60347 66600.00000 0 10833426.636 694528.397 23096046.168 10 0 60347 67500.00000 0 10058497.528 3443657.593 23197362.990 10 0 60347 68400.00000 0 9495202.188 6228669.386 22848704.753 10 0 60347 69300.00000 0 9152081.892 8979034.248 22056696.351 10 0 60347 70200.00000 0 9025089.427 11624412.746 20836560.244 10 0 60347 71100.00000 0 9097850.413 14097356.075 19211834.184 10 0 60347 72000.00000 0 9342458.805 16335897.412 17213927.768 10 0 60347 72900.00000 0 9720773.837 18285926.814 14881525.118 10 0 60347 73800.00000 0 10186164.536 19903250.722 12259844.023 10 0 60347 74700.00000 0 10685628.776 21155249.987 9399764.941 10 0 60347 75600.00000 0 11162197.682 22022066.614 6356846.037 10 0 60347 76500.00000 0 11557523.624 22497269.022 3190243.059 10 0 60347 77400.00000 0 11814541.641 22587967.311 -38444.859 10 0 60347 78300.00000 0 11880090.687 22314373.522 -3266380.491 10 0 60347 79200.00000 0 11707382.537 21708825.492 -6430720.566 10 0 60347 80100.00000 0 11258212.116 20814315.643 -9469849.488 10 0 60347 81000.00000 0 10504814.117 19682587.388 -12324589.513 10 0 60347 81900.00000 0 9431285.719 18371880.316 -14939362.611 10 0 60347 82800.00000 0 8034513.842 16944420.292 -17263280.358 10 0 60347 83700.00000 0 6324566.487 15463761.354 -19251139.858 10 0 60347 84600.00000 0 4324530.692 13992092.318 -20864305.895 10 0 60347 85500.00000 0 2069803.112 12587622.214 -22071462.003 10 0 60348 0.00000 0 -393137.311 11302155.030 -22849216.031 10 0 60348 900.00000 0 -3008424.917 10178954.982 -23182549.262 10 0 60348 1800.00000 0 -5712897.184 9250993.269 -23065100.046 10 0 60348 2700.00000 0 -8438496.193 8539646.762 -22499278.607 10 0 60348 3600.00000 0 -11114878.674 8053903.856 -21496210.417 10 0 60348 4500.00000 0 -13672127.444 7790108.725 -20075510.421 10 0 60348 5400.00000 0 -16043451.673 7732253.308 -18264893.035 10 0 60348 6300.00000 0 -18167764.199 7852803.243 -16099625.932 10 0 60348 7200.00000 0 -19992029.377 8114021.585 -13621838.621 10 0 60348 8100.00000 0 -21473284.659 8469733.337 -10879699.448 10 0 60348 9000.00000 0 -22580252.769 8867455.450 -7926477.200 10 0 60348 9900.00000 0 -23294478.466 9250801.744 -4819505.651 10 0 60348 10800.00000 0 -23610943.746 9562060.800 -1619071.201 10 0 60348 11700.00000 0 -23538137.135 9744837.791 1612754.753 10 0 60348 12600.00000 0 -23097575.423 9746648.644 4813316.111 10 0 60348 13500.00000 0 -22322799.012 9521357.136 7920581.867 10 0 60348 14400.00000 0 -21257883.838 9031352.169 10874342.215 10 0 60348 15300.00000 0 -19955532.831 8249373.484 13617368.169 10 0 60348 16200.00000 0 -18474827.143 7159908.799 16096512.749 10 0 60348 17100.00000 0 -16878731.234 5760103.203 18263733.140 10 0 60348 18000.00000 0 -15231455.909 4060141.944 20077014.718 10 0 60348 18900.00000 0 -13595789.000 2083089.458 21501179.890 10 0 60348 19800.00000 0 -12030504.489 -135810.058 22508566.798 10 0 60348 20700.00000 0 -10587957.556 -2550343.074 23079565.281 10 0 60348 21600.00000 0 -9311965.194 -5104999.665 23203000.062 10 0 60348 22500.00000 0 -8236060.310 -7737041.373 22876353.721 10 0 60348 23400.00000 0 -7382191.820 -10378879.976 22105824.776 10 0 60348 24300.00000 0 -6759924.931 -12960670.121 20906219.067 10 0 60348 25200.00000 0 -6366175.144 -15413009.525 19300675.539 10 0 60348 26100.00000 0 -6185487.424 -17669635.539 17320230.553 10 0 60348 27000.00000 0 -6190849.207 -19670006.426 15003227.876 10 0 60348 27900.00000 0 -6345003.539 -21361660.014 12394584.570 10 0 60348 28800.00000 0 -6602207.389 -22702251.025 9544926.002 10 0 60348 29700.00000 0 -6910361.107 -23661181.321 6509606.000 10 0 60348 30600.00000 0 -7213418.944 -24220754.169 3347630.874 10 0 60348 31500.00000 0 -7453978.100 -24376803.235 120508.275 10 0 60348 32400.00000 0 -7575935.832 -24138769.360 -3108956.193 10 0 60348 33300.00000 0 -7527100.843 -23529221.501 -6277890.362 10 0 60348 34200.00000 0 -7261646.868 -22582841.967 -9324589.768 10 0 60348 35100.00000 0 -6742302.920 -21344918.989 -12189729.557 10 0 60348 36000.00000 0 -5942185.795 -19869410.633 -14817529.257 10 0 60348 36900.00000 0 -4846195.807 -18216662.527 -17156846.669 10 0 60348 37800.00000 0 -3451915.420 -16450876.392 -19162178.796 10 0 60348 38700.00000 0 -1769971.730 -14637436.774 -20794549.892 10 0 60348 39600.00000 0 176153.374 -12840209.132 -22022269.222 10 0 60348 40500.00000 0 2350858.059 -11118923.177 -22821544.024 10 0 60348 41400.00000 0 4707670.076 -9526751.338 -23176936.242 10 0 60348 42300.00000 0 7190958.974 -8108183.542 -23081654.790 10 0 60348 43200.00000 0 9738039.694 -6897286.605 -22537678.462 10 0 60348 44100.00000 0 12281579.942 -5916419.964 -21555707.830 10 0 60348 45000.00000 0 14752211.203 -5175460.122 -20154947.773 10 0 60348 45900.00000 0 17081234.880 -4671564.602 -18362725.474 10 0 60348 46800.00000 0 19203311.255 -4389483.525 -16213951.731 10 0 60348 47700.00000 0 21059019.750 -4302403.979 -13750436.432 10 0 60348 48600.00000 0 22597184.465 -4373290.014 -11020071.735 10 0 60348 49500.00000 0 23776868.855 -4556660.469 -8075898.950 10 0 60348 50400.00000 0 24568957.207 -4800728.544 -4975077.421 10 0 60348 51300.00000 0 24957257.945 -5049812.050 -1777775.460 10 0 60348 52200.00000 0 24939083.677 -5246912.074 1453995.106 10 0 60348 53100.00000 0 24525284.836 -5336350.862 4657578.181 10 0 60348 54000.00000 0 23739736.419 -5266357.497 7770883.290 10 0 60348 54900.00000 0 22618300.125 -4991492.222 10733582.951 10 0 60348 55800.00000 0 21207305.871 -4474807.219 13488274.637 10 0 60348 56700.00000 0 19561616.500 -3689652.722 15981585.380 10 0 60348 57600.00000 0 17742356.545 -2621052.226 18165198.309 10 0 60348 58500.00000 0 15814399.660 -1266588.488 19996781.950 10 0 60348 59400.00000 0 13843719.018 363237.729 21440805.116 10 0 60348 60300.00000 0 11894710.430 2245192.407 22469222.331 10 0 60348 61200.00000 0 10027598.950 4344030.377 23062017.066 10 0 60348 62100.00000 0 8296036.125 6613726.469 23207592.619 10 0 60348 63000.00000 0 6744987.205 8999166.451 22903003.092 10 0 60348 63900.00000 0 5408995.727 11438229.322 22154019.639 10 0 60348 64800.00000 0 4310897.419 13864176.263 20975030.049 10 0 60348 65700.00000 0 3461036.850 16208248.484 19388772.611 10 0 60348 66600.00000 0 2857019.625 18402367.076 17425908.228 10 0 60348 67500.00000 0 2484010.580 20381823.200 15124437.805 10 0 60348 68400.00000 0 2315565.718 22087846.740 12528974.938 10 0 60348 69300.00000 0 2314963.032 23469945.887 9689886.953 10 0 60348 70200.00000 0 2436976.266 24487919.453 6662320.300 10 0 60348 71100.00000 0 2630016.535 25113456.593 3505128.759 10 0 60348 72000.00000 0 2838550.739 25331255.795 279725.416 10 0 60348 72900.00000 0 3005693.675 25139615.367 -2951118.765 10 0 60348 73800.00000 0 3075862.887 24550469.783 -6124505.571 10 0 60348 74700.00000 0 2997382.392 23588869.925 -9178644.279 10 0 60348 75600.00000 0 2724923.416 22291928.936 -12054065.253 10 0 60348 76500.00000 0 2221677.109 20707278.288 -14694787.606 10 0 60348 77400.00000 0 1461165.766 18891099.576 -17049417.070 10 0 60348 78300.00000 0 428614.538 16905815.540 -19072151.945 10 0 60348 79200.00000 0 -878175.451 14817538.097 -20723677.089 10 0 60348 80100.00000 0 -2448490.369 12693381.285 -21971928.379 10 0 60348 81000.00000 0 -4258918.198 10598752.257 -22792713.025 10 0 60348 81900.00000 0 -6274106.012 8594734.031 -23170174.133 10 0 60348 82800.00000 0 -8448028.622 6735669.330 -23097091.146 10 0 60348 83700.00000 0 -10725715.654 5067045.935 -22575011.108 10 0 60348 84600.00000 0 -13045365.094 3623770.920 -21614208.949 10 0 60348 85500.00000 0 -15340755.099 2428904.499 -20233478.287 10 0 60349 0.00000 0 -17543853.468 1492904.793 -18459757.594 10 0 60349 900.00000 0 -19587517.315 813412.780 -16327598.406 10 0 60349 1800.00000 0 -21408167.695 375585.628 -13878488.733 10 0 60349 2700.00000 0 -22948331.998 152960.854 -11160041.901 10 0 60349 3600.00000 0 -24158945.533 108814.509 -8225068.959 10 0 60349 4500.00000 0 -25001318.033 197954.176 -5130551.977 10 0 60349 5400.00000 0 -25448683.430 368870.100 -1936538.332 10 0 60349 6300.00000 0 -25487268.887 566152.835 1295022.530 10 0 60349 7200.00000 0 -25116839.176 733074.812 4501477.260 10 0 60349 8100.00000 0 -24350694.343 814226.518 7620678.601 10 0 60349 9000.00000 0 -23215121.394 758095.946 10592183.982 10 0 60349 9900.00000 0 -21748323.375 519482.478 13358419.802 10 0 60349 10800.00000 0 -19998870.799 61643.479 15865789.397 10 0 60349 11700.00000 0 -18023740.039 -641916.879 18065703.900 10 0 60349 12600.00000 0 -15886020.209 -1606092.064 19915516.741 10 0 60349 13500.00000 0 -13652383.531 -2833308.414 21379344.535 10 0 60349 14400.00000 0 -11390423.724 -4313188.341 22428759.162 10 0 60349 15300.00000 0 -9165972.260 -6022756.882 23043338.259 10 0 60349 16200.00000 0 -7040503.120 -7927184.606 23211063.793 10 0 60349 17100.00000 0 -5068733.006 -9981037.733 22928561.049 10 0 60349 18000.00000 0 -3296515.995 -12129985.290 22201173.076 10 0 60349 18900.00000 0 -1759119.617 -14312894.118 21042868.506 10 0 60349 19800.00000 0 -479953.683 -16464226.194 19475983.529 10 0 60349 20700.00000 0 530195.279 -18516639.728 17530801.862 10 0 60349 21600.00000 0 1273392.090 -20403686.567 15244979.541 10 0 60349 22500.00000 0 1764233.884 -22062493.732 12662824.449 10 0 60349 23400.00000 0 2028997.311 -23436316.974 9834443.493 10 0 60349 24300.00000 0 2104287.867 -24476858.963 6814773.223 10 0 60349 25200.00000 0 2035248.504 -25146254.019 3662512.294 10 0 60349 26100.00000 0 1873403.575 -25418635.020 438976.648 10 0 60349 27000.00000 0 1674230.091 -25281215.339 -2793099.931 10 0 60349 27900.00000 0 1494560.154 -24734839.272 -5970795.677 10 0 60349 28800.00000 0 1389925.847 -23793977.055 -9032236.045 10 0 60349 29700.00000 0 1411960.614 -22486163.954 -11917808.996 10 0 60349 30600.00000 0 1605968.762 -20850906.894 -14571335.513 10 0 60349 31500.00000 0 2008767.518 -18938104.778 -16941171.443 10 0 60349 32400.00000 0 2646894.335 -16806049.315 -18981218.412 10 0 60349 33300.00000 0 3535256.371 -14519090.870 -20651823.681 10 0 60349 34200.00000 0 4676280.081 -12145067.846 -21920551.265 10 0 60349 35100.00000 0 6059597.440 -9752607.786 -22762809.536 10 0 60349 36000.00000 0 7662282.472 -7408413.341 -23162323.592 10 0 60349 36900.00000 0 9449628.417 -5174646.491 -23111443.858 10 0 60349 37800.00000 0 11376433.105 -3106519.770 -22611285.701 10 0 60349 38700.00000 0 13388738.790 -1250194.156 -21671698.121 10 0 60349 39600.00000 0 15425953.657 358929.921 -20311062.826 10 0 60349 40500.00000 0 17423266.356 1697458.716 -18555928.213 10 0 60349 41400.00000 0 19314252.786 2754738.298 -16440485.796 10 0 60349 42300.00000 0 21033566.303 3533046.009 -14005899.640 10 0 60349 43200.00000 0 22519599.183 4047234.360 -11299502.032 10 0 60349 44100.00000 0 23717004.440 4323844.269 -8373871.167 10 0 60349 45000.00000 0 24578972.894 4399726.727 -5285808.892 10 0 60349 45900.00000 0 25069170.764 4320232.451 -2095238.425 10 0 60349 46800.00000 0 25163257.215 4137046.980 1135956.550 10 0 60349 47700.00000 0 24849918.886 3905763.412 4345128.874 10 0 60349 48600.00000 0 24131378.608 3683295.690 7470077.868 10 0 60349 49500.00000 0 23023357.451 3525241.896 10450249.056 10 0 60349 50400.00000 0 21554491.927 3483308.781 13227900.692 10 0 60349 51300.00000 0 19765230.793 3602906.109 15749215.044 10 0 60349 52200.00000 0 17706257.306 3921012.046 17965333.541 10 0 60349 53100.00000 0 15436502.309 4464399.504 19833296.472 10 0 60349 54000.00000 0 13020830.222 5248298.196 21316869.846 10 0 60349 54900.00000 0 10527493.334 6275549.181 22387244.148 10 0 60349 55800.00000 0 8025459.170 7536288.210 23023592.043 10 0 60349 56700.00000 0 5581720.861 9008172.412 23213474.605 10 0 60349 57600.00000 0 3258701.061 10657142.446 22953088.298 10 0 60349 58500.00000 0 1111856.277 12438690.049 22247347.569 10 0 60349 59400.00000 0 -812419.738 14299579.928 21109800.893 10 0 60349 60300.00000 0 -2478506.937 16179955.919 19562380.864 10 0 60349 61200.00000 0 -3862813.436 18015744.975 17634992.039 10 0 60349 62100.00000 0 -4954521.334 19741259.763 15364943.219 10 0 60349 63000.00000 0 -5755792.797 21291891.643 12796233.882 10 0 60349 63900.00000 0 -6281427.785 22606781.544 9978707.558 10 0 60349 64800.00000 0 -6557987.820 23631356.393 6967087.778 10 0 60349 65700.00000 0 -6622422.859 24319623.861 3819914.899 10 0 60349 66600.00000 0 -6520259.540 24636127.743 598404.496 10 0 60349 67500.00000 0 -6303428.035 24557480.436 -2634750.005 10 0 60349 68400.00000 0 -6027820.345 24073406.749 -5816606.330 10 0 60349 69300.00000 0 -5750684.655 23187253.807 -8885208.969 10 0 60349 70200.00000 0 -5527967.454 21915944.653 -11780806.084 10 0 60349 71100.00000 0 -5411717.512 20289376.872 -14447022.843 10 0 60349 72000.00000 0 -5447663.112 18349291.230 -16831967.191 10 0 60349 72900.00000 0 -5673066.429 16147657.971 -18889245.745 10 0 60349 73800.00000 0 -6114946.883 13744648.766 -20578869.533 10 0 60349 74700.00000 0 -6788749.400 11206279.756 -21868031.783 10 0 60349 75600.00000 0 -7697514.345 8601824.766 -22731742.827 10 0 60349 76500.00000 0 -8831584.474 6001107.065 -23153310.268 10 0 60349 77400.00000 0 -10168861.335 3471782.796 -23124655.704 10 0 60349 78300.00000 0 -11675600.385 1076729.080 -22646462.656 10 0 60349 79200.00000 0 -13307711.334 -1128355.047 -21728153.612 10 0 60349 80100.00000 0 -15012509.089 -3097035.924 -20387697.339 10 0 60349 81000.00000 0 -16730841.811 -4793835.239 -18651250.842 10 0 60349 81900.00000 0 -18399506.910 -6195453.959 -16552643.374 10 0 60349 82800.00000 0 -19953853.810 -7291481.042 -14132712.889 10 0 60349 83700.00000 0 -21330464.556 -8084559.427 -11438508.029 10 0 60349 84600.00000 0 -22469800.187 -8590004.426 -8522371.311 10 0 60349 85500.00000 0 -23318702.225 -8834892.497 -5440921.407 99